User: anonymous   Login
Location: Trebic
(49.2170°N, 15.8830°E)
Time: 19:42:27
(UTC+02:00)
Language:

Transit 2A - Orbit

View from above orbital plane
View from above orbital plane
View from above satellite
View from above satellite

Ground track
Ground track

The orbit data is extracted from the following two-line orbital elements,

1    45U 60007A   19228.89178054 -.00000064 +00000-0 +10928-4 0  9991
2    45 066.6943 106.0991 0255787 179.7507 180.3770 14.33646157022034
Epoch (UTC): 16 August 2019 21:24:09
Eccentricity: 0.0255787
inclination: 66.6943°
perigee height: 596 km
apogee height: 962 km
right ascension of ascending node: 106.0991°
argument of perigee: 179.7507°
revolutions per day: 14.33646157
mean anomaly at epoch: 180.3770°
orbit number at epoch: 2203

The dashed part of the orbit path shows where the satellite is in the earth's shadow,  

DLR